CAPE
0 0 0 0 0 0 0 0 2 0 0 0 0 0 33 3 0 47 11 397 78 1 0 0 69 104 93 159 402 308 124 0 16 0 0 0 0 0 0 0 0 0 0 0
0 0 0 0 0 0 0 0 0 0 0 0 0 0 0 0 1 0 57 133 248 61 29 0 16 190 245 258 420 259 200 69 81 0 0 0 0 0 0 0 0 0 0 0
0 0 1 0 0 0 0 13 0 0 0 0 9 10 0 0 3 32 26 7 206 122 161 104 72 354 262 332 351 324 185 86 14 0 0 0 0 0 0 0 0 0 0 0
0 0 0 0 0 0 1 0 9 4 0 1 0 17 40 10 0 2 105 140 248 205 366 344 151 278 394 368 439 391 275 0 0 0 0 0 0 0 0 0 0 0 0 0
5 8 2 0 0 0 0 0 0 9 0 1 2 1 10 0 0 0 20 35 26 279 385 314 330 561 591 698 518 378 0 0 0 0 0 0 0 0 0 0 0 0 0 0
0 0 0 2 0 0 17 0 1 1 0 9 29 0 3 0 0 0 78 87 190 201 214 408 544 689 669 500 43 0 0 0 0 0 0 0 0 0 0 0 0 0 0 0
1 0 1 1 4 30 31 23 7 0 0 6 23 8 0 0 0 0 25 64 98 299 387 527 522 403 402 38 0 0 0 0 0 0 0 0 0 0 0 0 0 0 0 0
0 15 0 1 0 18 1 0 1 0 0 17 1 9 1 0 0 0 3 3 13 322 330 508 528 501 27 0 0 0 0 0 0 0 0 0 0 0 0 0 0 0 0 0
8 46 2 6 25 18 5 13 0 3 0 0 6 15 57 6 0 0 0 0 146 521 428 719 508 8 0 0 0 0 0 0 0 0 0 0 0 0 0 0 0 0 0 0
22 35 1 0 5 0 17 0 22 2 2 0 0 0 8 0 0 1 0 1 395 375 228 66 0 0 0 0 0 0 0 0 0 0 0 0 0 0 0 0 0 0 0 0
3 6 21 0 9 0 0 0 0 0 0 0 40 1 0 0 0 2 0 110 310 188 12 0 0 0 0 0 0 0 0 0 0 0 0 0 0 0 0 0 0 0 0 0
0 1 1 39 0 0 0 0 0 0 0 0 0 0 0 0 0 0 2 93 113 42 0 0 0 0 0 0 0 0 0 0 0 0 0 0 0 0 0 0 0 0 0 0
31 0 0 0 8 44 0 0 0 0 0 0 0 0 0 0 0 0 0 0 24 0 0 0 0 0 0 0 0 0 0 0 0 0 0 0 0 0 0 0 0 0 0 0
56 22 0 0 0 19 10 0 0 0 0 0 0 0 0 0 0 0 0 0 10 1 0 0 0 0 0 0 0 0 0 0 0 0 0 0 0 0 0 0 0 0 0 0
1 0 0 0 28 6 3 10 0 0 0 0 0 0 0 0 0 0 0 0 0 0 0 0 0 0 0 0 0 0 0 0 0 0 0 0 0 0 0 0 0 0 0 0
0 6 0 0 0 0 0 0 0 0 0 0 0 0 0 0 0 0 0 0 0 0 0 0 0 0 0 0 0 0 0 0 0 0 0 0 0 0 0 0 0 0 0 0
0 1 0 0 0 0 0 0 0 0 0 0 0 0 0 0 0 0 0 0 0 0 0 0 0 0 0 0 0 0 0 0 0 0 0 0 0 0 0 0 0 0 0 0
0 0 0 0 0 0 0 0 0 0 0 0 0 0 0 0 0 0 0 0 0 0 0 0 0 0 0 0 0 0 0 0 0 0 0 0 0 0 0 0 0 0 0 0
21 0 0 0 0 0 0 0 0 0 0 0 0 0 0 0 0 0 0 0 0 0 0 0 0 0 0 0 0 0 0 0 0 0 0 0 0 0 0 0 0 0 0 0
0 0 0 0 0 0 0 0 0 0 0 0 0 0 0 0 0 0 0 0 0 0 0 0 0 0 0 0 0 0 0 0 0 0 0 0 0 0 0 0 0 0 0 0
0 0 0 0 0 0 0 0 0 0 0 0 0 0 0 0 0 0 0 0 0 0 0 0 0 0 0 0 0 0 0 0 0 0 0 0 0 0 0 0 0 0 0 0
0 0 0 0 0 0 0 0 0 0 0 0 0 0 0 0 0 0 0 0 0 0 0 0 0 0 0 0 0 0 0 0 0 0 0 0 0 0 0 0 0 0 0 0
4 0 0 0 0 0 0 0 0 0 0 0 0 0 0 0 0 0 0 0 0 0 0 0 0 0 0 0 0 0 0 0 0 0 0 0 0 0 0 0 0 0 0 0
0 0 0 0 0 0 0 0 0 0 0 0 0 0 0 0 0 0 0 0 0 0 0 0 0 0 0 0 0 0 0 0 0 0 0 0 0 0 0 0 0 0 0 0
0 0 0 0 0 0 0 0 0 0 0 0 0 0 0 0 0 0 0 0 0 0 0 0 0 0 0 0 0 0 0 0 0 0 0 0 0 0 0 0 0 0 0 0
0 0 0 0 0 0 0 0 0 0 0 0 0 0 0 0 0 0 0 0 0 0 0 0 0 0 0 0 0 0 0 0 0 0 0 0 0 0 0 0 0 0 0 0
CIN
-0 -0 -0 -0 -0 -0 -0 -0 -19 -0 -0 -0 -0 -0 -162 -172 -0 -86 -217 -195 -147 -26 -0 -0 -202 -252 -293 -245 -147 -189 -203 -0 -182 -0 -0 -0 -0 -0 -0 -0 -0 -0 -0 -0
-0 -0 -0 -0 -0 -0 -0 -0 -0 -0 -0 -0 -0 -0 -0 -20 -28 -0 -353 -334 -181 -137 -171 -0 -205 -236 -246 -254 -162 -229 -178 -189 -180 -0 -0 -0 -0 -0 -0 -0 -0 -0 -0 -0
-0 -0 -20 -0 -0 -0 -0 -45 -0 -0 -0 -7 -19 -47 -0 -25 -35 -284 -312 -134 -152 -153 -165 -186 -213 -196 -246 -259 -210 -205 -177 -164 -95 -0 -0 -0 -0 -0 -0 -0 -0 -0 -0 -0
-0 -0 -0 -0 -0 -0 -38 -6 -64 -5 -0 -34 -0 -59 -102 -56 -0 -11 -102 -124 -103 -120 -136 -172 -198 -202 -161 -175 -137 -133 -149 -0 -0 -0 -0 -0 -0 -0 -0 -0 -0 -0 -0 -0
-9 -63 -73 -0 -0 -0 -2 -0 -0 -44 -0 -36 -65 -29 -104 -0 -0 -0 -56 -74 -123 -154 -155 -199 -193 -158 -111 -99 -110 -85 -0 -0 -0 -0 -0 -0 -0 -0 -0 -0 -0 -0 -0 -0
-0 -0 -0 -72 -19 -0 -37 -0 -12 -7 -0 -30 -48 -0 -94 -0 -0 -26 -87 -47 -77 -193 -201 -174 -190 -179 -138 -148 -184 -0 -0 -0 -0 -0 -0 -0 -0 -0 -0 -0 -0 -0 -0 -0
-64 -0 -9 -49 -8 -35 -46 -52 -18 -0 -0 -23 -119 -59 -0 -0 -0 -0 -162 -146 -196 -176 -190 -234 -209 -220 -180 -181 -0 -0 -0 -0 -0 -0 -0 -0 -0 -0 -0 -0 -0 -0 -0 -0
-30 -27 -10 -5 -0 -26 -11 -0 -9 -0 -0 -143 -24 -40 -25 -10 -0 -0 -35 -200 -174 -187 -198 -219 -187 -136 -317 -0 -0 -0 -0 -0 -0 -0 -0 -0 -0 -0 -0 -0 -0 -0 -0 -0
-78 -41 -151 -82 -90 -36 -11 -34 -0 -84 -0 -3 -32 -50 -25 -148 -11 -0 -0 -0 -228 -115 -143 -131 -134 -334 -0 -0 -0 -0 -0 -0 -0 -0 -0 -0 -0 -0 -0 -0 -0 -0 -0 -0
-257 -108 -229 -0 -75 -0 -34 -0 -25 -2 -53 -40 -0 -0 -19 -0 -29 -87 -0 -41 -139 -159 -190 -243 -0 -0 -0 -0 -0 -0 -0 -0 -0 -0 -0 -0 -0 -0 -0 -0 -0 -0 -0 -0
-311 -111 -197 -0 -63 -0 -0 -0 -0 -0 -0 -0 -27 -2 -0 -0 -0 -69 -8 -154 -134 -193 -279 -0 -0 -0 -0 -0 -0 -0 -0 -0 -0 -0 -0 -0 -0 -0 -0 -0 -0 -0 -0 -0
-0 -9 -29 -116 -0 -0 -0 -0 -0 -0 -0 -1 -0 -0 -0 -0 -0 -0 -15 -130 -192 -276 -0 -0 -0 -0 -0 -0 -0 -0 -0 -0 -0 -0 -0 -0 -0 -0 -0 -0 -0 -0 -0 -0
-95 -0 -0 -0 -9 -45 -5 -0 -0 -0 -0 -0 -0 -0 -0 -0 -0 -0 -0 -0 -192 -29 -0 -0 -0 -0 -0 -0 -0 -0 -0 -0 -0 -0 -0 -0 -0 -0 -0 -0 -0 -0 -0 -0
-66 -37 -0 -0 -0 -30 -15 -0 -0 -0 -0 -0 -0 -0 -0 -0 -0 -0 -0 -0 -51 -28 -0 -0 -0 -0 -0 -0 -0 -0 -0 -0 -0 -0 -0 -0 -0 -0 -0 -0 -0 -0 -0 -0
-25 -0 -0 -0 -68 -25 -5 -22 -0 -0 -0 -0 -0 -0 -0 -0 -0 -0 -0 -0 -0 -0 -0 -0 -0 -0 -0 -0 -0 -0 -0 -0 -0 -0 -0 -0 -0 -0 -0 -0 -0 -0 -0 -0
-0 -46 -0 -0 -0 -0 -0 -0 -0 -0 -0 -0 -0 -0 -0 -0 -0 -0 -0 -0 -0 -0 -0 -0 -0 -0 -0 -0 -0 -0 -0 -0 -0 -0 -0 -0 -0 -0 -0 -0 -0 -0 -0 -0
-0 -40 -0 -0 -0 -0 -0 -0 -0 -0 -0 -0 -0 -0 -0 -0 -0 -0 -0 -0 -0 -0 -0 -0 -0 -0 -0 -0 -0 -0 -0 -0 -0 -0 -0 -0 -0 -0 -0 -0 -0 -0 -0 -0
-0 -0 -0 -0 -0 -0 -0 -0 -0 -0 -0 -0 -0 -0 -0 -0 -0 -0 -0 -0 -0 -0 -0 -0 -0 -0 -0 -0 -0 -0 -0 -0 -0 -0 -0 -0 -0 -0 -0 -0 -0 -0 -0 -0
-157 -0 -0 -0 -0 -0 -0 -0 -0 -0 -0 -0 -0 -0 -0 -0 -0 -0 -0 -0 -0 -0 -0 -0 -0 -0 -0 -0 -0 -0 -0 -0 -0 -0 -0 -0 -0 -0 -0 -0 -0 -0 -0 -0
-0 -0 -0 -0 -0 -0 -0 -0 -0 -0 -0 -0 -0 -0 -0 -0 -0 -0 -0 -0 -0 -0 -0 -0 -0 -0 -0 -0 -0 -0 -0 -0 -0 -0 -0 -0 -0 -0 -0 -0 -0 -0 -0 -0
-0 -0 -0 -0 -0 -0 -0 -0 -0 -0 -0 -0 -0 -0 -0 -0 -0 -0 -0 -0 -0 -0 -0 -0 -0 -0 -0 -0 -0 -0 -0 -0 -0 -0 -0 -0 -0 -0 -0 -0 -0 -0 -0 -0
-0 -0 -0 -0 -0 -0 -0 -0 -0 -0 -0 -0 -0 -0 -0 -0 -0 -0 -0 -0 -0 -0 -0 -0 -0 -0 -0 -0 -0 -0 -0 -0 -0 -0 -0 -0 -0 -0 -0 -0 -0 -0 -0 -0
-66 -0 -0 -0 -0 -0 -0 -0 -0 -0 -0 -0 -0 -0 -0 -0 -0 -0 -0 -0 -0 -0 -0 -0 -0 -0 -0 -0 -0 -0 -0 -0 -0 -0 -0 -0 -0 -0 -0 -0 -0 -0 -0 -0
-0 -0 -0 -0 -0 -0 -0 -0 -0 -0 -0 -0 -0 -0 -0 -0 -0 -0 -0 -0 -0 -0 -0 -0 -0 -0 -0 -0 -0 -0 -0 -0 -0 -0 -0 -0 -0 -0 -0 -0 -0 -0 -0 -0
-0 -0 -0 -0 -0 -0 -0 -0 -0 -0 -0 -0 -0 -0 -0 -0 -0 -0 -0 -0 -0 -0 -0 -0 -0 -0 -0 -0 -0 -0 -0 -0 -0 -0 -0 -0 -0 -0 -0 -0 -0 -0 -0 -0
-0 -0 -0 -0 -0 -0 -0 -0 -0 -0 -0 -0 -0 -0 -0 -0 -0 -0 -0 -0 -0 -0 -0 -0 -0 -0 -0 -0 -0 -0 -0 -0 -0 -0 -0 -0 -0 -0 -0 -0 -0 -0 -0 -0
Wind_Speed
4 2 5 9 2 6 4 2 7 8 10 6 8 10 11 6 8 11 9 6 8 10 10 12 15 17 15 12 15 13 11 8 6 4 5 3 5 4 4 5 7 7 6 6
0 4 7 1 9 7 9 7 10 10 6 5 2 7 12 11 8 16 15 19 20 7 11 11 14 17 18 14 14 14 11 9 7 6 3 4 6 3 5 5 5 6 6 6
3 4 5 4 13 6 4 6 3 5 3 3 6 5 4 3 8 11 20 25 19 19 17 13 14 19 17 16 16 15 13 12 7 10 8 5 5 4 3 3 3 4 7 6
5 5 6 8 11 8 3 4 6 3 6 2 5 1 5 5 9 6 20 20 15 12 14 11 9 11 17 14 14 14 14 12 10 10 10 13 5 6 3 4 4 4 6 6
6 2 6 10 13 6 7 7 2 2 3 7 4 4 6 1 12 13 6 8 10 15 17 13 10 10 11 12 10 10 13 9 9 9 10 10 9 7 4 4 7 6 5 6
7 6 3 4 6 6 2 2 3 3 3 3 8 6 5 11 19 9 3 7 8 13 10 11 9 12 9 6 8 12 13 8 9 9 8 12 14 9 6 5 5 3 3 3
4 5 6 5 3 3 1 3 4 5 6 4 13 4 11 13 15 13 12 8 4 10 12 12 13 12 13 10 10 11 12 10 11 11 9 9 9 9 9 6 4 4 2 2
4 6 7 3 5 6 3 7 6 5 1 5 4 4 9 15 19 14 12 7 5 8 10 13 14 12 12 12 12 11 12 11 11 9 8 7 8 5 5 5 4 3 2 2
4 1 8 14 11 4 3 1 6 8 5 3 5 10 6 9 7 6 8 6 7 8 8 13 9 14 14 13 9 10 12 9 10 9 7 7 6 7 6 7 6 4 4 3
7 4 1 14 14 8 4 3 5 3 6 4 4 4 1 4 6 12 7 8 9 9 9 8 11 12 12 12 8 9 9 12 9 8 7 6 6 6 6 6 6 5 5 3
7 5 5 6 10 9 1 3 3 4 6 6 1 6 3 5 3 11 13 14 14 13 12 11 13 13 14 13 11 9 9 11 9 8 7 7 6 6 6 6 5 5 4 2
8 6 4 11 14 7 6 4 6 7 5 2 5 7 3 6 3 5 8 13 14 15 14 13 15 15 14 14 13 12 10 13 11 9 7 7 6 6 6 5 5 5 4 2
2 1 3 7 6 6 4 5 4 4 4 5 7 7 2 5 4 2 4 6 9 12 11 13 12 16 16 14 13 12 12 13 13 12 10 8 7 6 6 6 6 5 4 3
6 2 8 8 8 4 3 5 6 6 5 4 6 5 12 6 8 7 4 3 8 9 14 13 13 13 16 17 16 15 11 14 13 11 11 9 7 7 6 5 6 5 4 4
5 4 1 3 5 5 1 5 7 5 6 8 8 7 11 1 3 2 6 3 1 7 4 7 9 9 13 13 11 10 8 12 12 11 11 9 8 7 7 6 4 3 3 4
1 2 2 1 5 7 4 8 7 6 3 2 5 6 3 7 7 8 7 8 6 5 6 7 5 8 12 12 10 10 10 11 12 11 8 7 8 8 7 6 3 4 6 7
5 6 4 3 4 7 7 7 5 6 5 3 4 7 5 8 8 7 7 7 7 4 6 7 6 7 7 10 11 13 12 11 11 9 9 11 11 9 8 6 5 9 10 8
6 4 3 3 4 2 10 4 4 4 3 7 10 10 8 6 8 12 12 9 9 8 7 6 3 4 7 6 8 8 11 11 10 9 11 8 10 9 5 2 10 6 4 6
3 5 3 6 4 5 8 3 3 3 4 5 8 7 6 5 7 8 7 7 6 6 6 5 4 4 6 8 9 11 11 11 13 12 10 8 10 8 6 4 4 4 6 6
6 6 7 2 5 7 8 2 3 4 2 5 8 7 6 5 5 3 5 3 4 7 7 12 12 12 8 2 9 13 12 13 11 12 11 11 10 5 2 3 6 5 4 5
4 3 6 2 2 8 6 5 1 8 8 3 5 5 7 4 5 4 4 7 8 14 15 14 16 14 13 12 17 17 15 16 11 11 12 10 5 3 3 5 1 4 5 5
7 6 4 4 3 6 5 4 7 7 3 6 5 3 5 4 7 8 9 10 14 14 15 14 15 15 14 15 17 16 16 11 12 12 8 1 4 2 4 2 2 4 7 6
1 8 7 8 8 8 2 7 5 6 5 3 5 6 6 8 7 11 12 15 13 14 12 11 13 14 12 13 13 13 8 8 8 6 4 1 3 4 3 5 5 4 4 2
2 3 4 6 2 5 6 2 7 8 10 11 11 10 9 7 11 13 12 12 12 12 11 10 10 10 9 7 7 6 4 5 5 2 3 3 4 5 5 5 4 4 3 1
6 5 5 2 3 10 10 8 11 13 12 16 16 15 12 14 12 13 12 11 9 8 7 7 7 7 8 6 5 4 4 5 3 3 3 4 4 5 5 5 5 4 5 5
3 7 5 6 1 10 4 8 12 15 13 12 14 15 15 14 13 12 10 7 6 7 6 7 6 6 4 3 2 2 2 1 2 4 4 4 4 5 5 5 5 7 12 10
Wind_Direction
212 83 226 266 220 279 305 226 205 234 246 163 165 153 146 146 114 146 86 26 295 168 159 160 143 150 144 148 148 138 143 158 135 157 133 143 128 131 99 95 105 93 91 78
103 248 301 62 296 313 312 298 281 254 183 111 73 183 152 162 176 172 146 159 231 159 160 166 144 154 158 151 156 147 158 171 178 169 152 147 145 132 132 120 121 114 94 72
149 227 339 240 253 259 288 263 335 94 83 76 99 41 16 251 192 183 179 189 202 161 173 175 158 157 163 161 164 162 169 186 163 138 130 107 89 78 89 104 89 80 86 80
215 240 275 275 270 273 179 241 348 44 67 242 86 178 333 324 327 331 173 189 180 172 167 164 155 148 162 167 166 162 174 136 145 145 137 148 145 133 126 138 131 102 87 78
266 155 244 258 257 287 218 206 235 139 182 89 295 81 283 134 237 270 273 190 187 170 164 162 153 137 159 155 152 158 135 128 131 125 129 127 122 123 139 121 104 93 83 86
223 182 127 282 202 231 217 29 296 326 152 97 229 160 238 189 217 227 175 216 172 166 146 146 134 130 141 125 128 141 131 114 109 110 116 123 132 135 119 118 113 108 104 84
275 228 174 237 251 144 76 45 6 3 13 227 37 39 259 225 218 217 216 192 173 153 147 141 146 147 150 142 141 136 122 125 118 112 116 126 132 126 128 138 134 115 104 81
159 341 8 298 210 184 195 152 163 168 131 286 290 227 239 214 197 195 210 204 174 153 138 157 166 159 136 143 146 132 135 134 130 125 132 130 130 135 131 128 122 111 88 77
116 296 335 328 345 134 299 62 177 106 5 66 253 249 336 83 156 197 202 158 199 151 140 158 143 140 143 149 151 145 142 139 139 138 134 139 136 129 132 126 105 106 91 60
193 136 111 312 318 298 153 264 26 18 134 241 284 299 189 82 171 196 191 207 179 150 148 150 152 152 150 154 155 147 143 147 147 140 136 138 134 133 129 122 122 124 113 92
146 110 304 122 241 237 308 275 212 138 131 166 165 276 187 90 95 169 201 188 176 170 170 162 162 165 164 164 163 160 144 147 145 137 139 137 152 143 138 138 143 140 121 124
203 146 145 218 229 203 194 214 168 123 257 189 148 267 209 143 141 141 174 187 184 177 176 170 167 167 170 170 169 168 149 153 150 148 143 155 158 158 158 162 152 136 153 121
170 179 61 339 334 347 235 227 226 129 89 188 130 260 236 171 166 92 111 126 185 180 178 180 170 174 173 172 169 169 154 156 155 157 154 160 168 170 179 161 156 151 151 148
92 148 150 186 212 209 269 233 255 152 110 204 206 266 294 258 191 196 194 171 146 185 188 191 191 180 173 172 169 171 158 156 162 158 160 161 174 177 177 156 150 154 170 162
116 163 297 289 323 320 297 282 277 246 203 149 235 225 259 344 159 97 203 217 178 102 118 249 206 163 165 164 157 159 161 162 158 153 159 169 173 142 134 144 127 202 197 209
119 201 95 291 349 36 351 329 327 318 312 265 233 243 188 171 102 68 58 61 83 55 29 21 132 161 163 164 159 165 172 163 150 152 157 141 117 110 110 87 49 310 259 246
126 121 91 241 355 17 348 239 241 254 281 252 287 260 43 56 65 51 36 51 43 10 59 43 79 174 163 158 174 178 168 150 149 140 129 122 129 109 86 47 318 257 250 247
124 109 95 181 36 46 240 241 144 164 42 47 74 76 76 81 66 57 43 68 50 45 30 24 35 131 174 183 165 151 146 144 134 119 112 99 94 85 106 333 267 264 300 288
128 126 101 130 180 279 321 17 79 99 47 45 83 56 64 64 75 19 37 52 50 31 3 342 306 230 188 170 162 132 128 124 114 116 112 98 82 75 50 282 340 316 286 275
56 85 112 119 138 197 235 145 19 54 67 41 67 46 45 52 59 271 8 41 34 36 37 45 30 29 1 117 112 102 83 76 73 80 79 73 69 68 8 321 291 281 302 282
41 15 140 122 168 289 248 142 92 89 224 93 67 78 59 75 181 229 347 6 61 65 65 63 49 41 24 54 78 76 86 95 102 85 70 60 32 320 282 256 267 276 292 306
158 139 184 90 95 284 186 54 131 201 107 87 59 71 60 45 31 29 37 55 70 72 69 63 67 53 46 58 78 80 79 73 70 75 80 152 219 288 290 316 299 346 303 300
90 170 175 158 211 230 141 133 158 127 130 100 83 48 68 65 47 60 68 64 73 77 73 70 76 73 60 65 72 78 81 90 97 114 202 233 2 293 294 293 271 278 284 311
98 130 106 74 283 195 193 115 77 88 89 78 76 70 65 69 74 81 77 69 66 63 74 78 78 80 86 88 95 111 108 99 106 60 15 309 272 273 267 264 258 242 223 265
199 115 155 225 287 87 46 59 86 73 68 84 67 54 48 79 72 88 81 76 72 73 74 73 78 76 68 62 64 65 50 43 23 317 290 284 269 264 266 261 247 238 227 193
172 175 144 206 174 104 77 66 84 78 68 74 83 68 57 68 74 76 74 71 73 71 60 61 62 71 68 50 20 6 333 283 262 280 272 255 257 260 260 271 283 264 226 230